Regional Weather Roundup
Issued by NWS Upton, NY

Current Version | Previous Version | Text Only | Print | Product List | Glossary Off
Versions: 1 2 3 4 5 6 7 8 9 10 11 12 13 14 15 16 17 18 19 20 21 22 23 24 25 26 27 28 29 30 31 32 33 34 35 36 37 38 39 40 41 42 43 44 45 46 47 48 49 50
000 ASUS41 KOKX 122108 RWROKX REGIONAL WEATHER ROUNDUP NATIONAL WEATHER SERVICE NEW YORK NY 400 PM EST TUE DEC 12 2017 NOTE: "FAIR" INDICATES FEW OR NO CLOUDS BELOW 12,000 FEET WITH NO SIGNIFICANT WEATHER AND/OR OBSTRUCTIONS TO VISIBILITY. NYZ071-072-176-178-NJZ106-104-122200- NEW YORK CITY METRO AREA CITY SKY/WX TMP DP RH WIND PRES REMARKS Central Park CLOUDY 44 34 67 W7 29.44F Bronx Bot Gard N/A 43 32 65 W12 29.42S Bronx Lehman C N/A 43 34 70 W7 N/A LaGuardia APRT CLOUDY 45 34 65 W12 29.41F Queens College N/A 45 32 61 NW9 N/A Kennedy INTL CLOUDY 45 34 65 W15 29.43F Breezy Point N/A 43 N/A N/A W10G20 N/A Brooklyn Coll N/A 45 32 61 W10 N/A Staten Island N/A 45 32 61 W9 N/A Newark/Liberty CLOUDY 44 33 65 NW13 29.43F Teterboro MOCLDY 44 34 67 NW10G18 29.42F $$ NYZ177-179-078>081-122200- LONG ISLAND NEW YORK CITY SKY/WX TMP DP RH WIND PRES REMARKS Jones Beach N/A 45 N/A N/A W17 N/A Wantagh N/A 46 34 61 W10 N/A Matinecock PT N/A 43 N/A N/A W14 N/A Farmingdale CLOUDY 45 35 68 NW12 29.41S MacArthur/ISP CLOUDY 45 37 73 NW16 29.38F Shirley CLOUDY 45 39 79 NW12 29.39F Mt Sinai Harb N/A N/A N/A N/A W9G16 N/A Westhampton CLOUDY 47 41 80 NW16G22 29.38F East Hampton MOCLDY 50 43 77 W9 29.36F Southold N/A 50 45 81 SW8 N/A Montauk N/A 53 48 83 SW7 29.37F $$ NYZ052-065-067-122200- HUDSON VALLEY CITY SKY/WX TMP DP RH WIND PRES REMARKS White Plains MOCLDY 40 36 86 W8 29.40F WCI 34 Larchmont Harb N/A 43 N/A N/A W7 N/A Croton On Huds N/A 41 N/A N/A W6 N/A Somers N/A 37 37 100 W2 N/A Brewster N/A 37 36 93 NW5 N/A WCI 34 Newburgh CLOUDY 37 37 100 W6 29.42F FOG WCI 33 Montgomery CLOUDY 38 35 89 SW8 29.40S WCI 32 Otisville N/A 36 34 93 W3 N/A Warwick N/A 39 34 81 W5 N/A Suffern N/A 39 36 87 W5 N/A Poughkeepsie CLOUDY 39 36 89 CALM 29.41F Albany LGT RAIN 36 33 89 S7 29.41F FOG WCI 30 $$ NJZ001-105-106-008-010-013-015-019>022-104-122200- NEW JERSEY CITY SKY/WX TMP DP RH WIND PRES REMARKS Newark/Liberty CLOUDY 44 33 65 NW13 29.43F Teterboro MOCLDY 44 34 67 NW10G18 29.42F Caldwell CLOUDY 42 35 76 W5 29.43F Somerville CLOUDY 42 34 73 VRB5 29.43S Linden CLOUDY 43 33 66 NW10 29.44S Perth Amboy N/A 43 N/A N/A W13 N/A Sussex LGT RAIN 40 34 79 W3 29.43R Andover N/A 38 33 82 VRB6 29.43S WCI 33 Trenton CLOUDY 43 33 68 W10 29.44F Millville CLOUDY 44 34 67 W9 29.49R Atlantic City CLOUDY 46 34 62 NW12 29.47R Wrightstown MOCLDY 44 32 64 NW8 29.43S Toms River CLOUDY 44 34 67 NW7 29.45S Belmar MOCLDY 44 32 62 W14G20 29.44S $$ PAZ047>061-062-071-122200- EASTERN PENNSYLVANIA CITY SKY/WX TMP DP RH WIND PRES REMARKS Philadelphia CLOUDY 44 31 60 NW15 29.49R Allentown CLOUDY 42 28 57 W12 29.46R Scranton LGT SNOW 33 27 78 NW24G30 29.47R WCI 20 $$ CTZ002-004>006-009-010-012-RIZ004-006-007-MAZ004-011-015-122200- SOUTHERN NEW ENGLAND IN CT CITY SKY/WX TMP DP RH WIND PRES REMARKS Bradley INTL LGT RAIN 36 35 96 NW3 29.40F FOG Hartford MIX PCPN 37 35 92 NE5 29.40S FOG WCI 33 Danbury LGT RAIN 40 36 86 W3 29.41F Wtrbury/Oxford LGT RAIN 38 36 92 W7 29.39F WCI 33 Norwalk Harbor N/A 41 N/A N/A W15 N/A Bridgeport CLOUDY 43 37 79 W8 29.40S Meriden LGT RAIN 37 37 100 CALM 29.39F VSB 1/4 New Haven CLOUDY 44 38 79 NW8 29.39F Chester CLOUDY 45 41 87 NW7G15 29.37R Groton CLOUDY 50 46 86 S8 29.35F Wilimantic FOG 39 37 92 MISG 29.37F VSB 1/4 IN RI CITY SKY/WX TMP DP RH WIND PRES REMARKS Providence CLOUDY 48 47 96 S3 29.38F Block Island CLOUDY 52 49 89 SW10 29.37F Westerly CLOUDY 52 50 93 S5 29.36F IN MA CITY SKY/WX TMP DP RH WIND PRES REMARKS Boston CLOUDY 45 43 93 S9 29.39F Worcester FOG 34 32 92 NE6 29.35F VSB<1/4 WCI 29 Westfield LGT RAIN 34 33 96 NE3 29.39F FOG Provincetown LGT RAIN 48 46 93 SE10 29.40F FOG Nantucket LGT RAIN 50 50 100 SE17 29.38F $$ ANZ330-335-338-340-345-350-353-355-122200- COASTAL MARINE OBSERVATIONS STATION/POSITION TIME SKY/WX TEMP WIND PRES VSBY WAVE AIR SEA DIR/SP/G HT/PER (UTC) (F) (DEG/KT/KT) (MB) (MI) (FT/S) NY HARB ENTRANCE 1950 47 54 290/ 19/ 23 995.4 5/ 6 20 S FIRE ISLAND 1950 50 54 290/ 17/ 21 995.4 6/ 7 GREAT SOUTH BAY 2015 45 45 300/ 12/ 14 N/A HUDSON CANYON 1950 54 57 260/ 21/ 25 994.9 7/ 6 KINGS POINT 2024 44 46 330/ 10/ 15 996.9 EXECUTION ROCKS 2045 44 290/ 10/ 12 N/A WESTERN LI SOUND NOT AVBL CENTRAL LI SOUND 1953 52 200/ 14/ 19 N/A 2 ROBBINS REEF 2024 44 280/ 15/ 18 996.9 $$ >>>>>>>>>>>>>>>>>>>>>>>>>>>> KEY <<<<<<<<<<<<<<<<<<<<<<<<<<< > < > SKY/WX - Sky Condition/Present Weather < > TMP - Temperature in Fahrenheit < > DP - Dew Point in Fahrenheit < > RH - Relative Humidity in Percent < > WIND - Direction (from) and Speed in MPH < > PRES - Mean Sea Level Pressure (inches of Hg) < > WCI - Wind Chill Index < > VSB - VISIBILITY IN MILES < > HX - HEAT INDEX < > TC - TEMPERATURE IN CELSIUS < > VRB - VARIABLE WIND DIRECTION < > < >>>>>>>>>>>>>>>>>>>>>>>>>>>> KEY <<<<<<<<<<<<<<<<<<<<<<<<<<<

USA.gov is the U.S. government's official web portal to all federal, state and local government web resources and services.